Wind_Speed
22 18 16 14 15 11 11 13 7 8 13 12 19 16 6 13 6 4 3 3 3 2 7 13 14 10 3 4 7 7 11 15 14 12 9 9 10 8 11 13 13 8 9 8
23 22 18 11 14 12 16 11 11 17 11 15 20 27 12 6 9 7 2 2 4 4 3 5 5 7 7 1 3 5 6 9 11 11 10 10 9 8 8 8 8 8 13 20
23 21 19 18 12 14 20 20 19 17 13 14 17 27 25 10 8 10 5 5 5 3 3 4 10 4 7 6 3 5 10 12 12 13 12 12 11 8 6 9 11 13 16 18
24 19 19 16 12 12 16 20 17 16 14 13 14 19 17 20 14 17 14 9 8 8 9 5 3 0 2 3 4 3 3 9 13 15 16 16 14 15 11 15 16 14 23 21
25 21 18 14 13 13 16 17 17 15 13 14 16 19 14 17 18 15 20 12 11 6 6 10 8 4 4 2 4 4 3 6 7 12 17 17 17 19 23 17 36 27 30 26
26 23 23 17 18 14 16 16 19 17 16 19 22 19 21 23 25 22 23 19 16 15 10 10 10 7 5 7 9 10 13 11 10 7 8 14 20 23 24 27 29 28 25 27
25 28 25 19 21 19 17 17 17 15 12 19 26 23 23 19 17 21 21 23 24 23 16 16 14 15 15 9 9 11 14 12 10 6 8 9 12 18 26 29 27 26 26 28
27 27 26 21 23 22 22 22 23 21 25 30 33 25 25 21 17 19 20 23 28 25 24 19 19 18 16 16 15 13 12 11 11 11 8 10 10 11 14 18 19 18 19 20
33 33 28 26 25 23 26 27 26 24 29 35 34 26 23 25 20 19 20 23 21 26 24 19 18 19 19 19 22 18 18 18 16 13 12 10 10 9 9 8 8 10 15 20
42 40 37 31 32 31 28 29 30 29 29 35 31 28 17 21 23 21 20 22 29 25 26 26 22 22 25 25 25 23 23 21 21 14 15 14 13 11 10 10 10 11 11 8
45 41 44 39 35 39 38 33 30 32 33 34 33 29 9 23 34 23 23 23 23 31 32 28 28 29 29 30 32 29 27 22 21 18 18 17 13 13 12 11 10 7 6 6
46 43 46 45 41 42 44 41 38 35 38 37 39 37 29 24 35 30 27 26 24 25 26 31 34 33 31 32 31 30 27 25 22 20 18 19 17 14 13 11 7 7 8 7
37 44 49 50 45 45 50 52 48 44 42 40 46 40 38 37 36 31 29 29 28 26 26 26 26 26 27 29 28 26 28 25 22 22 22 21 17 15 14 10 7 13 13 11
31 35 40 44 48 56 59 53 53 49 44 45 47 50 45 42 42 38 31 30 30 29 27 25 25 25 25 26 26 26 25 26 25 24 24 23 21 19 16 14 13 23 22 17
23 30 36 40 49 56 51 55 55 52 50 47 51 60 46 44 40 39 34 35 34 32 29 27 25 26 24 25 26 27 25 25 25 25 26 26 27 23 21 19 17 29 29 25
31 29 31 30 42 48 50 54 55 52 49 47 60 62 56 47 35 34 36 38 37 37 35 33 30 29 29 27 27 27 28 29 28 26 25 27 30 29 26 24 24 30 34 30
27 33 33 33 43 38 46 52 53 51 53 55 66 64 62 54 38 39 39 34 37 40 40 39 37 35 33 33 33 33 32 32 29 29 28 29 31 35 32 31 30 28 34 43
29 31 36 37 48 41 42 47 50 55 57 61 65 72 69 54 47 38 44 42 45 45 44 43 42 42 41 40 38 39 37 36 34 32 31 27 30 37 40 40 34 35 34 46
32 33 34 38 38 34 29 41 48 57 58 66 71 69 64 56 48 40 38 44 45 49 51 51 49 48 49 45 43 43 43 42 40 35 32 31 29 33 43 45 40 40 40 44
29 30 21 17 21 24 41 50 47 53 53 61 58 49 48 37 45 47 47 42 45 52 55 57 53 52 52 46 43 46 49 49 45 41 36 32 30 36 41 44 46 43 47 49
33 26 16 16 14 17 21 28 41 46 51 48 34 28 32 19 17 26 46 47 46 51 61 62 57 53 54 51 49 53 53 53 50 45 41 39 36 37 38 46 47 47 49 53
33 23 19 15 17 13 24 24 28 36 46 39 32 34 28 31 25 21 46 53 48 45 46 54 55 54 57 57 55 51 52 54 53 49 46 43 43 42 41 42 41 46 53 60
29 28 25 13 7 14 31 24 22 22 21 23 35 39 31 38 31 22 34 53 65 65 42 41 49 53 60 65 64 62 60 61 60 59 53 49 47 47 45 44 46 44 51 60
31 31 27 22 21 12 17 37 27 21 26 29 41 39 21 52 53 56 55 49 55 64 65 74 78 78 72 76 68 68 70 69 66 63 59 55 54 53 52 51 51 54 56 60
30 34 38 24 31 14 10 42 36 35 33 37 41 46 44 61 54 65 60 63 64 63 59 57 61 69 74 80 79 78 74 71 68 65 62 59 57 57 52 54 56 55 56 57
33 35 40 21 36 37 28 39 41 47 39 48 41 44 48 57 54 63 72 73 68 62 66 72 74 72 68 70 66 64 59 57 56 56 58 60 60 57 55 56 57 57 59 56
Wind_Direction
274 279 288 289 294 282 237 216 217 232 213 206 201 198 133 237 221 277 354 2 350 34 57 67 73 75 84 135 120 130 151 146 147 148 149 162 181 190 195 170 171 179 206 225
273 275 281 271 275 257 236 221 222 240 236 207 195 188 183 187 243 250 256 233 349 20 114 62 64 58 50 76 178 170 185 188 183 187 187 192 195 186 184 207 226 281 286 279
270 276 278 282 263 230 224 219 221 231 232 234 219 215 216 220 239 220 211 243 249 265 282 77 71 73 53 52 16 233 218 217 220 224 225 233 225 201 205 265 260 281 262 266
268 268 272 273 268 248 228 225 228 231 231 228 238 236 239 241 234 218 211 219 230 242 242 243 252 42 93 42 335 107 290 261 244 240 237 233 226 228 208 280 258 261 261 271
266 267 264 260 253 246 239 232 232 239 239 220 221 231 239 245 244 245 212 219 206 243 253 237 246 236 250 201 218 213 253 299 280 255 248 241 236 233 236 246 232 262 247 263
263 262 256 253 255 253 250 239 231 229 226 222 216 213 243 244 250 248 218 199 211 212 234 243 225 245 255 236 225 232 279 286 274 263 250 242 242 240 243 235 240 254 267 266
260 262 262 258 258 251 248 244 233 213 191 250 218 212 225 235 238 239 227 205 205 212 223 253 249 250 270 276 255 268 281 278 274 260 242 225 240 251 244 243 250 259 265 269
258 260 263 254 251 248 244 239 237 214 200 226 241 229 225 251 245 240 240 224 203 217 222 237 246 257 269 265 285 294 281 285 292 286 257 246 228 230 247 248 250 250 262 270
260 258 256 260 255 250 249 245 239 238 230 236 244 241 236 247 246 235 236 227 226 214 231 234 249 252 262 266 274 288 280 276 289 298 287 277 261 257 262 262 259 256 258 257
259 256 255 248 255 254 247 247 247 241 244 252 254 251 250 271 254 249 240 232 231 233 232 243 248 256 262 268 268 280 284 284 285 285 286 293 285 276 262 251 250 255 251 254
257 255 257 251 243 251 250 246 244 248 249 249 251 249 202 207 267 245 248 244 236 238 239 232 238 247 258 261 269 271 273 271 272 278 283 292 291 282 267 272 277 274 259 251
248 247 248 247 241 241 251 247 243 245 248 247 248 244 210 213 243 242 240 243 243 243 240 242 240 245 251 253 254 266 262 266 264 271 272 278 286 287 271 276 271 239 217 184
254 247 244 245 239 236 234 240 237 234 240 242 247 242 242 235 243 243 238 241 245 244 246 249 250 248 243 247 253 252 259 260 258 261 263 264 270 273 266 271 238 204 185 175
255 250 247 245 243 240 235 237 243 238 238 245 247 249 239 232 240 249 244 245 246 248 246 246 250 247 248 251 254 255 257 262 262 261 262 264 266 263 259 245 221 197 183 173
256 251 244 242 241 244 245 239 238 242 236 240 246 247 244 243 240 247 250 253 252 251 251 249 245 254 251 249 250 255 256 255 256 256 260 259 261 259 255 235 225 200 196 192
277 263 262 256 254 250 246 245 239 237 240 240 249 249 250 244 235 246 254 255 255 258 260 262 259 258 258 257 258 253 254 249 249 251 250 256 258 258 255 244 229 211 205 198
287 279 273 265 259 254 251 245 243 234 231 233 246 249 245 248 236 236 242 251 258 261 261 262 265 262 262 264 264 264 261 262 255 248 244 247 252 257 257 255 241 232 216 211
308 288 275 268 261 250 252 247 240 239 233 227 236 249 251 244 249 243 250 254 248 255 257 256 256 261 264 264 265 268 266 264 265 263 253 251 245 252 255 255 252 238 232 225
324 308 281 268 262 246 218 242 236 235 232 233 233 241 257 264 263 257 243 254 263 263 263 260 258 259 259 261 268 271 270 267 266 264 264 258 246 245 251 258 256 255 247 236
332 316 309 283 260 240 235 239 233 230 234 238 241 244 252 270 279 281 273 261 260 258 256 260 261 263 266 266 264 268 272 272 269 266 263 260 258 252 248 258 260 260 260 256
335 319 307 283 277 277 247 240 232 223 225 229 238 241 229 205 224 253 267 267 261 256 258 254 258 261 265 269 268 267 268 270 269 267 268 267 267 254 260 251 259 260 258 261
340 327 283 257 241 247 240 255 234 223 221 217 217 220 228 211 230 309 278 255 254 254 244 250 259 265 266 266 266 270 268 270 271 270 271 272 271 271 266 257 262 261 259 257
332 334 304 257 251 222 228 227 200 203 198 201 195 196 208 222 244 187 264 238 244 254 253 250 260 272 274 265 264 264 265 271 276 275 274 271 273 272 270 266 267 259 258 257
333 338 332 279 253 220 216 225 207 198 227 203 204 204 190 242 235 240 242 234 239 246 256 259 257 265 271 269 269 269 268 270 273 273 273 273 273 271 269 266 265 263 264 263
335 335 333 298 234 237 204 184 194 208 221 216 219 234 240 226 247 242 236 246 248 250 263 264 266 269 271 271 271 271 270 271 272 275 274 273 271 268 267 267 267 265 265 266
332 343 336 314 233 217 184 191 200 212 209 223 225 241 241 237 237 239 246 255 255 262 262 271 269 272 265 267 271 270 269 271 272 274 274 272 267 264 263 264 268 268 269 270
Height
10972 10975 10976 10973 10972 10974 10974 10975 10975 10972 10975 10975 10977 10977 10977 10980 10976 10978 10978 10978 10981 10981 10982 10981 10981 10981 10983 10985 10984 10984 10985 10986 10987 10989 10992 10994 10994 10996 10995 10998 10999 10999 10999 11000
10966 10968 10970 10973 10969 10970 10971 10971 10972 10967 10972 10973 10973 10974 10976 10977 10978 10981 10978 10981 10983 10984 10983 10982 10983 10983 10984 10986 10987 10987 10989 10990 10991 10991 10992 10993 10994 10998 11000 11002 11002 11002 11000 10998
10960 10960 10962 10965 10967 10967 10967 10968 10969 10968 10969 10968 10969 10970 10971 10974 10977 10978 10981 10981 10984 10985 10984 10984 10984 10985 10986 10987 10987 10988 10988 10989 10991 10993 10994 10994 10996 11003 11003 11002 11001 11002 10997 10994
10953 10955 10955 10957 10960 10961 10962 10963 10965 10965 10965 10966 10966 10967 10969 10971 10973 10976 10978 10980 10983 10985 10985 10985 10984 10986 10987 10988 10988 10988 10988 10988 10989 10992 10993 10993 10996 10998 10997 10986 10999 10996 10994 10992
10946 10949 10950 10952 10954 10956 10957 10959 10960 10961 10963 10963 10962 10962 10966 10969 10969 10971 10976 10979 10982 10984 10984 10984 10985 10984 10985 10987 10988 10988 10987 10987 10987 10988 10990 10990 10992 10991 10990 10985 10989 10992 10993 10989
10939 10941 10942 10947 10948 10951 10952 10954 10955 10956 10956 10956 10957 10960 10962 10964 10966 10969 10972 10976 10979 10982 10982 10983 10984 10983 10985 10985 10986 10986 10986 10986 10985 10985 10986 10987 10986 10989 10987 10987 10990 10990 10990 10988
10934 10933 10937 10942 10943 10945 10948 10949 10949 10953 10951 10947 10950 10952 10955 10959 10963 10965 10968 10971 10976 10980 10980 10981 10982 10984 10983 10984 10985 10985 10984 10984 10982 10981 10982 10983 10982 10981 10982 10982 10987 10986 10983 10980
10927 10928 10930 10935 10936 10938 10940 10942 10942 10946 10942 10937 10940 10949 10954 10954 10958 10961 10963 10966 10971 10973 10974 10977 10979 10979 10982 10981 10982 10982 10981 10981 10980 10978 10978 10978 10978 10977 10973 10975 10978 10979 10979 10976
10919 10919 10924 10927 10928 10931 10933 10934 10937 10939 10940 10936 10938 10944 10946 10949 10952 10955 10958 10962 10964 10970 10970 10974 10975 10976 10977 10979 10977 10978 10978 10978 10977 10977 10976 10975 10976 10977 10975 10976 10978 10977 10976 10976
10906 10910 10913 10919 10919 10921 10925 10926 10929 10931 10932 10928 10934 10937 10947 10948 10948 10950 10952 10955 10960 10964 10967 10968 10972 10973 10973 10972 10973 10974 10974 10975 10973 10974 10974 10974 10975 10975 10972 10970 10971 10972 10975 10977
10893 10898 10898 10906 10911 10908 10912 10917 10921 10922 10924 10923 10926 10931 10947 10955 10941 10947 10948 10949 10953 10957 10961 10966 10966 10967 10969 10969 10967 10968 10969 10970 10969 10969 10969 10970 10971 10970 10969 10969 10970 10972 10975 10976
10876 10883 10884 10889 10896 10900 10900 10904 10909 10913 10912 10915 10915 10918 10932 10929 10927 10936 10940 10943 10947 10950 10953 10955 10961 10964 10962 10963 10964 10962 10964 10964 10964 10964 10965 10966 10966 10967 10967 10967 10968 10969 10971 10976
10864 10867 10869 10873 10882 10885 10882 10881 10888 10896 10899 10905 10901 10911 10914 10919 10921 10927 10934 10937 10939 10943 10947 10949 10951 10954 10957 10957 10958 10959 10956 10957 10958 10958 10959 10960 10960 10961 10963 10965 10967 10967 10970 10974
10853 10854 10857 10863 10866 10858 10861 10875 10877 10884 10892 10892 10893 10891 10900 10910 10915 10919 10925 10929 10932 10934 10939 10942 10943 10947 10949 10951 10952 10953 10954 10951 10951 10951 10952 10953 10954 10956 10958 10959 10962 10965 10970 10973
10844 10843 10845 10846 10844 10842 10858 10863 10865 10873 10878 10882 10878 10869 10889 10898 10910 10912 10917 10920 10923 10925 10929 10934 10938 10938 10942 10943 10944 10945 10946 10947 10946 10947 10947 10948 10948 10950 10950 10952 10957 10961 10964 10964
10833 10836 10836 10840 10835 10838 10844 10847 10854 10864 10870 10874 10857 10860 10870 10885 10900 10906 10908 10912 10916 10918 10920 10923 10928 10930 10931 10935 10937 10938 10937 10937 10938 10940 10942 10941 10941 10942 10943 10944 10948 10952 10956 10957
10828 10824 10827 10828 10821 10828 10828 10833 10842 10850 10852 10857 10837 10846 10861 10874 10892 10896 10898 10903 10906 10909 10912 10915 10917 10919 10922 10924 10926 10926 10928 10928 10930 10932 10934 10936 10936 10933 10936 10936 10938 10944 10947 10945
10818 10814 10810 10811 10805 10814 10812 10822 10829 10831 10836 10841 10836 10823 10836 10868 10881 10893 10890 10893 10895 10896 10899 10902 10906 10908 10912 10914 10915 10916 10918 10920 10922 10923 10927 10928 10928 10927 10926 10924 10929 10932 10937 10935
10807 10801 10795 10791 10791 10798 10799 10801 10809 10813 10821 10818 10825 10834 10841 10855 10865 10877 10882 10882 10884 10886 10888 10890 10895 10896 10896 10904 10907 10907 10908 10909 10911 10915 10917 10918 10921 10919 10916 10915 10919 10920 10924 10922
10799 10789 10784 10782 10780 10781 10785 10789 10796 10801 10812 10807 10818 10842 10852 10851 10850 10858 10866 10870 10869 10870 10871 10876 10883 10884 10884 10896 10900 10898 10895 10896 10900 10902 10905 10910 10911 10909 10910 10908 10909 10912 10911 10910
10792 10786 10782 10782 10780 10777 10774 10780 10785 10787 10793 10807 10822 10835 10840 10857 10858 10861 10859 10862 10854 10858 10863 10860 10866 10873 10874 10879 10884 10888 10886 10885 10888 10891 10895 10897 10897 10899 10900 10900 10899 10901 10899 10897
10789 10784 10779 10776 10777 10778 10771 10771 10777 10780 10783 10798 10811 10819 10824 10836 10838 10833 10848 10855 10844 10842 10848 10851 10852 10860 10866 10863 10869 10873 10876 10875 10875 10881 10885 10887 10886 10887 10885 10888 10889 10889 10886 10881
10787 10782 10776 10774 10769 10768 10768 10771 10776 10781 10784 10793 10801 10814 10814 10823 10823 10833 10817 10831 10838 10833 10841 10845 10841 10842 10846 10852 10853 10859 10862 10863 10864 10867 10870 10873 10874 10873 10872 10875 10874 10875 10872 10868
10781 10776 10772 10765 10761 10761 10766 10771 10769 10769 10780 10788 10792 10796 10802 10805 10811 10810 10813 10816 10818 10821 10828 10831 10833 10834 10832 10836 10841 10843 10846 10848 10848 10851 10855 10859 10859 10858 10861 10859 10857 10857 10856 10853
10776 10769 10762 10754 10751 10754 10756 10757 10759 10768 10773 10777 10784 10786 10791 10791 10795 10801 10805 10812 10816 10817 10820 10816 10818 10821 10821 10819 10823 10827 10828 10831 10832 10834 10838 10840 10842 10843 10843 10844 10843 10842 10842 10841
10768 10762 10750 10742 10736 10746 10750 10750 10749 10753 10763 10770 10773 10776 10780 10785 10784 10789 10794 10793 10800 10806 10810 10804 10803 10807 10806 10805 10807 10809 10811 10814 10815 10814 10818 10821 10820 10824 10825 10825 10826 10827 10825 10825